[[{"header":{"parameterUnit":"m.s-1","parameterCategory":1,"la1":30.2991,"la2":30.254,"lo1":-89.0895,"lo2":-89.0444,"dy":0.0017,"dx":0.0017,"nx":28,"ny":28,"refTime":"2024-02-07T09:00:00:Z","depth":0,"parameterNumber":2,"parameterNumberName":"U-component_of_WINDS"},"data":[0,0,0,0,0,0,0,0,0,0,0,0,0,0,0,0,0,0,0,0,0,0,0,0,0,0,0,0,0,0,0,0,0,0,0,0,0,0,0,0,0,0,0,0,0,0,0,0,0,0,0,0,0,0,0,0,0,0,-3.1658,-3.1659,0,-3.1714,-3.1715,-3.1715,-3.1644,-3.1642,-3.1639,-3.1637,-3.1697,-3.1701,-3.1705,0,0,0,0,0,0,0,0,0,0,0,0,0,-3.1493,-3.1496,-3.1658,-3.1659,-3.1659,-3.1714,-3.1715,-3.1716,-3.1645,-3.1642,-3.1639,-3.1636,-3.1696,-3.1701,-3.1706,0,0,0,0,0,0,0,0,0,0,0,0,0,-3.1558,-3.1497,-3.1658,-3.1631,-3.1629,-3.1714,-3.1715,-3.1716,-3.1646,-3.1642,-3.1638,-3.1634,-3.1694,-3.17,-3.1706,-3.1822,0,0,-3.1725,-3.1727,0,0,0,0,0,0,0,0,-3.1555,-3.1565,-3.1634,-3.1633,-3.1631,-3.1668,-3.1679,-3.1752,-3.1647,-3.1639,-3.1637,-3.1632,-3.1691,-3.1697,-3.1716,-3.1825,-3.1827,-3.1725,-3.1729,-3.1732,-3.1733,0,0,0,0,0,0,0,-3.155,-3.1562,-3.168,-3.1635,-3.1633,-3.1617,-3.1622,-3.1692,-3.1686,-3.164,-3.1635,-3.1642,-3.1689,-3.1711,-3.1717,-3.1828,-3.1725,-3.173,-3.1734,-3.1737,-3.2036,-3.2041,0,0,0,0,0,0,-3.1548,-3.1558,-3.1678,-3.1682,-3.1582,-3.1623,-3.1628,-3.166,-3.1685,-3.1685,-3.1645,-3.1639,-3.1702,-3.171,-3.1719,-3.1858,-3.1731,-3.1737,-3.1741,-3.2032,-3.2037,-3.2042,0,0,0,0,0,0,-3.1545,-3.156,-3.1676,-3.1619,-3.1632,-3.163,-3.1666,-3.1663,-3.1684,-3.169,-3.1689,-3.1668,-3.1699,-3.171,-3.1797,-3.1859,-3.174,-3.1745,-3.2027,-3.2034,-3.204,-3.2135,0,0,0,0,0,0,-3.1541,-3.1559,-3.1602,-3.162,-3.1636,-3.1753,-3.167,-3.1667,-3.1695,-3.1686,-3.1711,-3.1711,-3.1697,-3.1788,-3.1803,-3.1865,-3.175,-3.2021,-3.203,-3.2038,-3.2126,-3.2144,-3.2159,0,0,0,0,0,-3.1535,-3.1627,-3.1605,-3.162,-3.1689,-3.1756,-3.1765,-3.1747,-3.17,-3.1744,-3.1748,-3.171,-3.1849,-3.1798,-3.1814,-3.1878,-3.2018,-3.2028,-3.2037,-3.2119,-3.2141,-3.2159,0,0,0,0,0,0,-3.1617,-3.1629,-3.1604,-3.1704,-3.173,-3.1744,-3.1799,-3.177,-3.1809,-3.18,-3.1776,-3.1782,-3.1875,-3.1885,-3.1828,-3.1993,-3.1926,-3.1939,-3.1983,-3.2003,-3.2019,-3.2016,-3.1755,0,0,0,0,0,-3.1646,-3.1698,-3.1706,-3.1794,-3.1808,-3.1802,-3.183,-3.1814,-3.1839,-3.185,-3.186,-3.1887,-3.1937,-3.197,-3.2016,-3.2127,-3.2132,-3.2179,-3.2196,-3.2209,-3.2222,-3.2283,-3.2305,-3.2074,-3.2074,-3.2074,0,0,-3.1708,-3.1721,-3.1756,-3.1811,-3.1829,-3.1885,-3.1811,-3.1873,-3.1915,-3.1859,-3.1942,-3.1951,-3.1979,-3.2079,-3.2123,-3.209,-3.2286,-3.2222,-3.2232,-3.2237,-3.2295,-3.2317,-3.2336,-3.2081,-3.2079,-3.2078,0,0,-3.1849,-3.1864,-3.1939,-3.1959,-3.1986,-3.1981,-3.2,-3.2019,-3.2022,-3.2104,-3.2065,-3.2114,-3.22,-3.2223,-3.2246,-3.2398,-3.2366,-3.2414,-3.2499,-3.256,-3.2578,-3.2594,-3.265,-3.267,-3.2426,-3.2426,-3.2426,0,-3.1923,-3.2005,-3.1982,-3.2047,-3.2074,-3.2025,-3.2103,-3.2123,-3.2165,-3.2185,-3.2147,-3.2255,-3.2271,-3.2376,-3.2413,-3.2433,-3.2454,-3.2411,-3.2577,-3.2593,-3.2607,-3.2661,-3.2682,-3.2432,-3.2431,-3.243,-3.243,0,-3.2095,-3.2153,-3.2211,-3.2252,-3.2285,-3.2356,-3.2345,-3.2381,-3.2362,-3.2362,-3.2448,-3.2465,-3.2515,-3.2538,-3.252,-3.2642,-3.2621,-3.258,-3.2513,-3.2635,-3.2685,-3.2705,-3.244,-3.2438,-3.2436,-3.2435,0,0,-3.229,-3.2318,-3.234,-3.2359,-3.2386,-3.2431,-3.2501,-3.2549,-3.2581,-3.2612,-3.2671,-3.2745,-3.2708,-3.2734,-3.2719,-3.2771,-3.2893,-3.2724,-3.2725,-3.2757,-3.3031,-3.3062,-3.3086,-3.2871,-3.2875,-3.2878,-3.3029,0,-3.2433,-3.2553,-3.2535,-3.2651,-3.2705,-3.266,-3.2721,-3.2746,-3.2748,-3.2795,-3.2797,-3.2851,-3.2797,-3.2813,-3.2863,-3.2868,-3.2948,-3.2856,-3.2928,-3.2931,-3.2924,-3.3112,-3.3145,-3.3286,-3.3048,-3.3051,-3.3053,0,-3.2616,-3.2653,-3.2775,-3.2795,-3.2817,-3.2872,-3.2916,-3.2961,-3.2988,-3.2986,-3.3016,-3.2991,-3.3062,-3.2993,-3.3092,-3.303,-3.3058,-3.3066,-3.3071,-3.3078,-3.3001,-3.3126,-3.3331,-3.3353,-3.3083,-3.3081,-3.3079,0,-3.2748,-3.2829,-3.2912,-3.293,-3.2955,-3.2995,-3.3008,-3.3031,-3.3062,-3.31,-3.312,-3.3166,-3.3192,-3.3229,-3.3218,-3.3168,-3.3321,-3.325,-3.3323,-3.3323,-3.3358,-3.3356,-3.3572,-3.3374,-3.3373,-3.3373,-3.3372,0,-3.2911,-3.2988,-3.2972,-3.3024,-3.3109,-3.3088,-3.3174,-3.3181,-3.3202,-3.3256,-3.322,-3.3271,-3.3252,-3.3303,-3.3295,-3.338,-3.3391,-3.3393,-3.339,-3.3397,-3.3397,-3.3416,-3.3407,-3.3378,-3.3377,-3.3376,-3.3375,0,-3.3074,-3.3066,-3.3155,-3.3172,-3.3178,-3.324,-3.3255,-3.3305,-3.3304,-3.3372,-3.3387,-3.3386,-3.3444,-3.3436,-3.3501,-3.3495,-3.3601,-3.3586,-3.3592,-3.3589,-3.3663,-3.3657,-3.39,-3.3932,-3.3711,-3.3713,-3.3715,0,-3.3179,-3.3237,-3.326,-3.3293,-3.3309,-3.3362,-3.3393,-3.3375,-3.3409,-3.3445,-3.3491,-3.3545,-3.3588,-3.3683,-3.3689,-3.3739,-3.3725,-3.3807,-3.3733,-3.3738,-3.3729,-3.3726,-3.3733,-3.3822,-3.3825,-3.3827,-3.3829,0,-3.3367,-3.336,-3.3406,-3.3452,-3.349,-3.3525,-3.3556,-3.3585,-3.357,-3.3611,-3.3669,-3.3702,-3.3768,-3.3824,-3.3871,-3.3885,-3.3856,-3.3852,-3.3872,-3.388,-3.3882,-3.3884,-3.3634,-3.3847,-3.3845,-3.3843,-3.3843,-3.3842,-3.3505,-3.3555,-3.358,-3.3633,-3.3654,-3.3685,-3.3733,-3.3738,-3.3786,-3.3838,-3.3824,-3.3891,-3.3919,-3.3979,-3.3998,-3.4051,-3.4021,-3.405,-3.4057,-3.4065,-3.4075,-3.3873,-3.4059,-3.4059,-3.4058,-3.4058,-3.4058,0,-3.3693,-3.3707,-3.3755,-3.38,-3.3843,-3.381,-3.3843,-3.3881,-3.394,-3.3968,-3.401,-3.4079,-3.4133,-3.4143,-3.4195,-3.4235,-3.4223,-3.425,-3.4247,-3.4252,-3.4097,-3.4076,-3.4259,-3.4259,-3.4259,-3.4259,-3.4259,-3.4259,-3.3795,-3.3879,-3.3876,-3.3971,-3.3985,-3.4049,-3.4072,-3.41,-3.4122,-3.42,-3.4245,-3.4251,-3.4272,-3.4325,-3.4374,-3.4375,-3.4397,-3.443,-3.4426,-3.4282,-3.4262,-3.4243,-3.4223,-3.4434,-3.4434,-3.4577,-3.4578,-3.4579]},{"header":{"parameterUnit":"m.s-1","parameterCategory":1,"la1":30.2991,"la2":30.254,"lo1":-89.0895,"lo2":-89.0444,"dy":0.0017,"dx":0.0017,"nx":28,"ny":28,"refTime":"2024-02-07T09:00:00:Z","depth":0,"parameterNumber":3,"parameterNumberName":"V-component_of_WINDS"},"data":[0,0,0,0,0,0,0,0,0,0,0,0,0,0,0,0,0,0,0,0,0,0,0,0,0,0,0,0,0,0,0,0,0,0,0,0,0,0,0,0,0,0,0,0,0,0,0,0,0,0,0,0,0,0,0,0,0,0,-0.8504,-0.8503,0,-0.8462,-0.8461,-0.8461,-0.842,-0.8419,-0.8419,-0.8418,-0.8376,-0.8375,-0.8374,0,0,0,0,0,0,0,0,0,0,0,0,0,-0.8547,-0.8546,-0.8504,-0.8503,-0.8503,-0.8462,-0.8461,-0.8461,-0.842,-0.8419,-0.8418,-0.8418,-0.8376,-0.8375,-0.8374,0,0,0,0,0,0,0,0,0,0,0,0,0,-0.8519,-0.8546,-0.8504,-0.8477,-0.8474,-0.8462,-0.8461,-0.8461,-0.842,-0.8419,-0.8418,-0.8418,-0.8376,-0.8375,-0.8374,-0.8385,0,0,-0.8371,-0.8371,0,0,0,0,0,0,0,0,-0.8521,-0.8517,-0.8482,-0.8479,-0.8476,-0.8445,-0.8461,-0.8435,-0.842,-0.8441,-0.8418,-0.8417,-0.8399,-0.8397,-0.839,-0.8383,-0.8381,-0.8371,-0.8371,-0.837,-0.837,0,0,0,0,0,0,0,-0.8523,-0.8519,-0.8487,-0.8481,-0.8478,-0.8467,-0.8462,-0.8456,-0.8425,-0.8439,-0.8436,-0.8431,-0.8398,-0.8391,-0.8389,-0.838,-0.8371,-0.837,-0.837,-0.8369,-0.8377,-0.8378,0,0,0,0,0,0,-0.8529,-0.8521,-0.8488,-0.8486,-0.8497,-0.8467,-0.8462,-0.8456,-0.8425,-0.842,-0.8432,-0.843,-0.8393,-0.839,-0.8388,-0.8397,-0.837,-0.8369,-0.8369,-0.8376,-0.8377,-0.8378,0,0,0,0,0,0,-0.853,-0.8526,-0.849,-0.8502,-0.8497,-0.8467,-0.8461,-0.8456,-0.8449,-0.842,-0.8414,-0.8431,-0.8393,-0.8389,-0.8385,-0.8395,-0.8369,-0.8368,-0.8376,-0.8377,-0.8378,-0.8416,0,0,0,0,0,0,-0.8531,-0.8527,-0.8531,-0.8503,-0.8497,-0.8489,-0.8462,-0.8455,-0.8448,-0.8444,-0.8418,-0.8413,-0.8392,-0.8387,-0.8384,-0.8393,-0.8367,-0.8375,-0.8376,-0.8377,-0.8414,-0.8418,-0.8422,0,0,0,0,0,-0.8533,-0.8544,-0.8531,-0.8528,-0.8501,-0.849,-0.8486,-0.8462,-0.8449,-0.8452,-0.8433,-0.8414,-0.8394,-0.8387,-0.8384,-0.8392,-0.8374,-0.8376,-0.8377,-0.8412,-0.8417,-0.8422,0,0,0,0,0,0,-0.8574,-0.854,-0.8525,-0.8528,-0.8512,-0.8483,-0.8487,-0.8469,-0.8456,-0.8453,-0.8424,-0.8418,-0.8418,-0.8404,-0.8397,-0.84,-0.8381,-0.8382,-0.8408,-0.8413,-0.8418,-0.8421,-0.8367,0,0,0,0,0,-0.8583,-0.8577,-0.8547,-0.8552,-0.8545,-0.8517,-0.8511,-0.8494,-0.8476,-0.8469,-0.845,-0.8434,-0.8424,-0.8418,-0.8407,-0.8411,-0.8405,-0.8416,-0.842,-0.8423,-0.8425,-0.8424,-0.8429,-0.8384,-0.8384,-0.8384,0,0,-0.8602,-0.8583,-0.8581,-0.856,-0.8545,-0.8539,-0.8512,-0.8507,-0.8502,-0.8469,-0.8464,-0.8449,-0.8429,-0.8429,-0.8428,-0.8418,-0.8435,-0.8426,-0.8429,-0.8428,-0.8427,-0.8431,-0.8435,-0.8385,-0.8385,-0.8385,0,0,-0.8634,-0.8619,-0.8621,-0.8607,-0.8585,-0.8566,-0.8567,-0.854,-0.8529,-0.8523,-0.8498,-0.8491,-0.8475,-0.8461,-0.8452,-0.8477,-0.8458,-0.8474,-0.8496,-0.8496,-0.85,-0.8503,-0.8511,-0.8514,-0.8476,-0.8476,-0.8476,0,-0.866,-0.865,-0.8624,-0.862,-0.8611,-0.858,-0.8581,-0.8569,-0.8545,-0.8539,-0.8528,-0.8506,-0.849,-0.8486,-0.8492,-0.8486,-0.8485,-0.8477,-0.8502,-0.8504,-0.8507,-0.8514,-0.8517,-0.8478,-0.8478,-0.8477,-0.8477,0,-0.8683,-0.8677,-0.8681,-0.8658,-0.8649,-0.8648,-0.862,-0.8615,-0.8598,-0.858,-0.8574,-0.8554,-0.8538,-0.8536,-0.8519,-0.8529,-0.8523,-0.8507,-0.8488,-0.8513,-0.8519,-0.8522,-0.8481,-0.848,-0.8479,-0.8479,0,0,-0.874,-0.8702,-0.8704,-0.8692,-0.8666,-0.866,-0.8657,-0.8641,-0.8636,-0.862,-0.8616,-0.8602,-0.8587,-0.8577,-0.8558,-0.8559,-0.8578,-0.8542,-0.8541,-0.8549,-0.8586,-0.8597,-0.8601,-0.8565,-0.8566,-0.8566,-0.8587,0,-0.8767,-0.8759,-0.8735,-0.8734,-0.8727,-0.8697,-0.8694,-0.8677,-0.866,-0.8651,-0.8632,-0.8622,-0.8604,-0.8597,-0.8596,-0.8576,-0.8585,-0.8574,-0.856,-0.856,-0.8566,-0.8604,-0.8617,-0.8638,-0.8589,-0.859,-0.859,0,-0.8797,-0.8783,-0.8782,-0.8754,-0.875,-0.8748,-0.873,-0.8722,-0.8702,-0.8689,-0.8677,-0.8656,-0.865,-0.8632,-0.8623,-0.8616,-0.8609,-0.8598,-0.8598,-0.8596,-0.8577,-0.8602,-0.8644,-0.8647,-0.8594,-0.8593,-0.8593,0,-0.8838,-0.8818,-0.8814,-0.8806,-0.8774,-0.8773,-0.8759,-0.8738,-0.8729,-0.8714,-0.8708,-0.8692,-0.8684,-0.8672,-0.8647,-0.8636,-0.864,-0.862,-0.8629,-0.8629,-0.8631,-0.8631,-0.8671,-0.8627,-0.8627,-0.8627,-0.8627,0,-0.887,-0.887,-0.8832,-0.883,-0.8829,-0.88,-0.88,-0.8783,-0.8764,-0.8758,-0.8731,-0.8725,-0.8693,-0.8683,-0.8664,-0.8658,-0.8655,-0.8644,-0.8639,-0.8646,-0.8647,-0.8641,-0.8639,-0.8628,-0.8628,-0.8627,-0.8627,0,-0.8915,-0.889,-0.8884,-0.8853,-0.8846,-0.8846,-0.882,-0.8816,-0.8797,-0.8789,-0.8786,-0.8756,-0.8743,-0.8717,-0.8697,-0.8683,-0.8682,-0.8673,-0.8689,-0.8686,-0.8695,-0.8695,-0.8733,-0.8736,-0.869,-0.8691,-0.8691,0,-0.8937,-0.8936,-0.8906,-0.8899,-0.8887,-0.8877,-0.8868,-0.8839,-0.8831,-0.8806,-0.8805,-0.879,-0.8777,-0.8757,-0.8734,-0.8718,-0.8708,-0.8722,-0.8705,-0.8712,-0.8707,-0.8707,-0.8706,-0.8726,-0.8727,-0.8727,-0.8728,0,-0.8978,-0.8965,-0.8953,-0.8937,-0.8926,-0.8912,-0.8896,-0.8892,-0.8859,-0.8851,-0.8837,-0.8827,-0.8806,-0.8791,-0.8771,-0.8757,-0.8736,-0.8733,-0.8734,-0.8741,-0.875,-0.8745,-0.8699,-0.8732,-0.8732,-0.8731,-0.8731,-0.8731,-0.9012,-0.9009,-0.8987,-0.8974,-0.8959,-0.8944,-0.8939,-0.8919,-0.8907,-0.8887,-0.8871,-0.8858,-0.8836,-0.8808,-0.8795,-0.8784,-0.8774,-0.8776,-0.8776,-0.8777,-0.878,-0.8752,-0.878,-0.878,-0.878,-0.878,-0.878,0,-0.9051,-0.9035,-0.9023,-0.9001,-0.8991,-0.8972,-0.8953,-0.8946,-0.8935,-0.8916,-0.8903,-0.8887,-0.8872,-0.8846,-0.8829,-0.8825,-0.8815,-0.8821,-0.8821,-0.8818,-0.879,-0.879,-0.883,-0.883,-0.883,-0.883,-0.883,-0.883,-0.907,-0.9064,-0.9049,-0.9035,-0.9018,-0.9006,-0.8996,-0.8982,-0.8967,-0.895,-0.8937,-0.8921,-0.8899,-0.8879,-0.8864,-0.8857,-0.8852,-0.8861,-0.8851,-0.8825,-0.882,-0.8816,-0.8816,-0.886,-0.886,-0.8879,-0.888,-0.888]}]]